{"data":{"norad_id":63424,"intl_designator":"2025-065AB","name":"STARLINK-33655","alt_names":[],"object_type":"PAYLOAD","status":"ACTIVE","operator":null,"country":"US","launch_date":"2025-03-31","launch_site_code":"AFETR","launch_vehicle":null,"mission":null,"orbit_class":"UNKNOWN","rcs_meters":null,"size_class":null,"mass_kg":null,"dimensions":null,"purposes":["comms"],"wikipedia_slug":null,"has_3d_model":false,"image_url":null,"decayed_at":null,"tle_current":{"epoch":"2026-05-25T01:11:35.473632Z","epoch_age_seconds":61007,"freshness":"FRESH","line1":"1 63424U 25065AB  26145.04971613  .00024039  00000+0  88009-3 0  9991","line2":"2 63424  43.0012  36.1623 0001406 265.1343  94.9348 15.27585326 64514","mean_motion":15.27585326,"eccentricity":0.0001406,"inclination_deg":43.0012,"raan_deg":36.1623,"arg_perigee_deg":265.1343,"mean_anomaly_deg":94.9348,"bstar":0.00088009,"rev_number":6451,"period_min":94.266420048081,"perigee_km":482.06846760314,"apogee_km":483.9978286488,"semimajor_km":6861.170148126,"source":"CELESTRAK","updated_at":"2026-05-25T13:38:19.995374Z"}}}